Regional Weather Roundup
Issued by NWS

Home | Current Version | Previous Version | Text Only | Print | Product List | Glossary Off
Versions: 1 2 3 4 5 6 7 8 9 10 11 12 13 14 15 16 17 18 19 20 21 22 23 24 25 26 27 28 29 30 31 32 33 34 35 36 37 38 39 40 41 42 43 44 45 46 47 48 49 50

000
ASUS43 KMKX 200500
RWRWI

WISCONSIN REGIONAL WEATHER ROUNDUP
NATIONAL WEATHER SERVICE MILWAUKEE/SULLIVAN WI
1200 AM CDT SAT SEP 20 2014

NOTE: "FAIR" INDICATES FEW OR NO CLOUDS BELOW 12,000 FEET WITH NO
SIGNIFICANT WEATHER AND/OR OBSTRUCTIONS TO VISIBILITY.

WIZ001-002-006>008-014>016-023>028-200600-
NORTHWEST WISCONSIN

CITY           SKY/WX    TMP DP  RH WIND       PRES   REMARKS
SUPERIOR ARPT  CLOUDY    61  61 100 SW7       29.61F FOG
ASHLAND        CLOUDY    66  61  84 SW9       29.63F
HAYWARD        CLOUDY    67  63  87 S7        29.65F
SIREN          CLEAR     62  61  96 S5        29.63F
RICE LAKE      CLOUDY    67  63  86 S9        29.69F
LADYSMITH      PTCLDY    65  61  87 S6        29.71F
EAU CLAIRE     NOT AVBL
MENOMONIE      PTCLDY    69  64  83 S9G16     29.70F
NEW RICHMOND   PTCLDY    69  67  94 S8        29.68S
OSCEOLA        CLEAR     67  67  99 CALM      29.67F
$$

WIZ003>005-009-010-017-018-200600-
NORTH CENTRAL WISCONSIN

CITY           SKY/WX    TMP DP  RH WIND       PRES   REMARKS
WOODRUFF       CLOUDY    66  58  75 SW13G20   29.72F
RHINELANDER    CLOUDY    63  55  75 SW15      29.73F
EAGLE RIVER    CLOUDY    64  54  68 SW10G17   29.72F
LAND O LAKES   CLOUDY    65  56  71 SW8       29.72F
PHILLIPS       PTCLDY    63  59  85 SW8       29.69F
TOMAHAWK       CLOUDY    63  55  76 S5        29.74F
MEDFORD        HVY RAIN  62  58  87 SW12      29.75S
MERRILL        CLOUDY    64  56  76 SW8       29.75F
$$

WIZ029-030-035-036-043>047-200600-
CENTRAL WISCONSIN

CITY           SKY/WX    TMP DP  RH WIND       PRES   REMARKS
WAUSAU         CLOUDY    64  55  72 S13       29.73F
MOSINEE        TSTM      61  55  82 S13       29.77F
MARSHFIELD     CLOUDY    65  56  72 S13       29.75F
STEVENS POINT  CLOUDY    63  53  68 S9        29.78F
WAUPACA        CLOUDY    66  54  65 S6        29.80F
WAUTOMA        NOT AVBL
WISC RAPIDS    CLOUDY    66  55  67 S16G22    29.77F
CAMP DOUGLAS   NOT AVBL
$$

WIZ011>013-019>022-031-037>040-048>050-200600-
NORTHEAST WISCONSIN

CITY           SKY/WX    TMP DP  RH WIND       PRES   REMARKS
ANTIGO         LGT RAIN  61  55  81 SW13G23   29.77F
STURGEON BAY   CLOUDY    63  50  63 S15G22    29.79F
GREEN BAY      CLOUDY    65  53  65 S12G18    29.80F
MANITOWOC      NOT AVBL
APPLETON       CLOUDY    63  52  67 SW14      29.82F
CLINTONVILLE   CLOUDY    64  52  63 SW10      29.78F
OSHKOSH        MOCLDY    64  53  67 S12       29.82F
$$

WIZ032>034-041-042-053>061-200600-
SOUTHWEST WISCONSIN

CITY           SKY/WX    TMP DP  RH WIND       PRES   REMARKS
LA CROSSE      MOCLDY    70  60  70 S18       29.75F
SPARTA         MOCLDY    67  56  67 S8        29.78F
VIROQUA        MOCLDY    65  58  76 S13       29.80F
BOSCOBEL       CLEAR     68  57  68 SW10G18   29.83F
PRAIRIE DU CHI CLEAR     68  56  67 CALM      29.81F
PLATTEVILLE    FAIR      65  56  70 S13G20    29.87F
$$

WIZ056-057-062-063-064-067-068-200600-
SOUTH CENTRAL WISCONSIN

CITY           SKY/WX    TMP DP  RH WIND       PRES   REMARKS
BARABOO/DELLS  CLEAR     65  52  62 SW10G21   29.82F
LONE ROCK      NOT AVBL
WATERTOWN      CLEAR     63  52  67 S7        29.87R
MADISON        CLEAR     67  54  63 S14G20    29.86S
MIDDLETON      FAIR      67  53  59 SW10G17   29.86S
MONROE         CLEAR     63  54  72 S20       29.87F
JANESVILLE     CLEAR     64  50  59 S10       29.89F
$$

WIZ051-052-058>065-066-070>072-200600-
SOUTHEAST WISCONSIN

CITY           SKY/WX    TMP DP  RH WIND       PRES   REMARKS
MILWAUKEE      MOCLDY    63  48  58 S14       29.88F
WAUKESHA       CLEAR     61  46  59 S8G16     29.89F
MILWAUKEE/TIMM CLEAR     63  45  51 S12       29.88S
RACINE         CLEAR     65  47  52 S15G22    29.91F
BURLINGTON     CLEAR     60  47  62 S14       29.90F
KENOSHA        CLEAR     64  49  57 SW12      29.91F
FOND DU LAC    PTCLDY    63  51  65 SW9       29.84S
SHEBOYGAN      MOCLDY    63  49  60 S15       29.85S
WEST BEND      PTCLDY    63  46  55 S9        29.86S
JUNEAU         CLEAR     62  52  68 S10       29.87S
$$

LSZ147-162-200600-
LAKE SUPERIOR

STATION/POSITION TIME  TEMP    WIND        PRES    WAVE
                       AIR SEA DIR/SP/G            HT/PER
                 (UTC) (F)     (DEG/KT/KT) (MB)    (FT/S)
W MID LAKE BUOY  0350   54 48  230/  8/  8 1003.2F   1/ 3
DEVILS ISLAND    0400   61     200/ 10/ 13 1003.0F
PORT WING        0400   62     200/  5/  8 1003.4F
SAXON HARBOR     0400   69     200/  6/ 10 1003.7F
$$

LMZ867-665-643>646-200600-
LAKE MICHIGAN

STATION/POSITION TIME  TEMP    WIND        PRES    WAVE
                       AIR SEA DIR/SP/G            HT/PER
                 (UTC) (F)     (DEG/KT/KT) (MB)    (FT/S)
N MID LAKE BUOY  0350   62 58  210/ 25/ 31 1008.2F   9/ 8
NORTHPORT PIER   0400   62     170/  7/ 15 1008.8R
KEWAUNEE LAKESHO 0400                      1009.4F
SHEBOYGAN LAKESH 0400   63 54  190/ 20/ 22 1011.0S
PORT WASHINGTON  0440   65     220/  5/ 10 1011.9S
ATWATER BUOY     0400   62     190/ 12/ 16 1013.0F
MILWAUKEE LAKESH 0400   64     200/ 13/ 15   N/A
S MID LAKE BUOY  0350   67 63  180/ 21/ 23 1013.4F   3/ 4
KENOSHA   LAKESH 0400   66     190/  9/ 14 1012.9F
$$

TC  - TEMPERATURE IN CELSIUS
VSB - VISIBILITY IN STATUTE MILES
WCI - WIND CHILL INDEX
HX  - HEAT INDEX




USA.gov is the U.S. government's official web portal to all federal, state and local government web resources and services.